Location: *
(50.5492°N, 7.7469°E)
Time: 05:39:45
(UTC+00:00)

Cosmos 2297 Rocket - Pass Details

Date: 21 October 2019
Orbit: 840 x 842 km, 71.0° (Epoch: 20 November)

Event Time Altitude Azimuth Distance (km) Brightness Sun altitude
Rises 19:42:26 0° 331° (NNW) 3,408 6.1 -31.5°
Reaches altitude 10° 19:45:49 10° 351° (N) 2,470 5.0 -32.0°
Enters shadow 19:48:00 16° 13° (NNE) 2,094 4.3 -32.3°
